Time,TemperatureF,DewpointF,PressureIn,WindDirection,WindDirectionDegrees,WindSpeedMPH,WindSpeedGustMPH,Humidity,HourlyPrecipIn,Conditions,Clouds,dailyrainin,SoftwareType,DateUTC
2015-07-01 00:23:00,75.0,71.0,-100.00,South,174,3.0,-999.0,89,-99.99,,,-99.99,,2015-07-01 04:23:00,
2015-07-01 00:33:00,75.0,71.0,-100.00,South,174,3.0,-999.0,89,-99.99,,,-99.99,,2015-07-01 04:33:00,
2015-07-01 00:43:00,75.0,71.0,-100.00,South,174,3.0,-999.0,89,-99.99,,,-99.99,,2015-07-01 04:43:00,
2015-07-01 01:23:00,75.0,70.0,-100.00,WNW,303,1.0,-999.0,87,-99.99,,,-99.99,,2015-07-01 05:23:00,
2015-07-01 01:33:00,75.0,70.0,-100.00,WNW,303,1.0,-999.0,87,-99.99,,,-99.99,,2015-07-01 05:33:00,
2015-07-01 01:43:00,75.0,70.0,-100.00,WNW,303,1.0,-999.0,87,-99.99,,,-99.99,,2015-07-01 05:43:00,
2015-07-01 02:23:00,73.0,70.0,-100.00,South,182,1.0,-999.0,93,-99.99,,,-99.99,,2015-07-01 06:23:00,
2015-07-01 02:34:00,73.0,70.0,-100.00,South,182,1.0,-999.0,93,-99.99,,,-99.99,,2015-07-01 06:34:00,
2015-07-01 02:44:00,73.0,70.0,-100.00,South,182,1.0,-999.0,93,-99.99,,,-99.99,,2015-07-01 06:44:00,
2015-07-01 03:23:00,73.0,71.0,-100.00,SSW,200,1.0,-999.0,91,-99.99,,,-99.99,,2015-07-01 07:23:00,
2015-07-01 03:33:00,73.0,71.0,-100.00,SSW,200,1.0,-999.0,91,-99.99,,,-99.99,,2015-07-01 07:33:00,
2015-07-01 03:44:00,73.0,71.0,-100.00,SSW,200,1.0,-999.0,91,-99.99,,,-99.99,,2015-07-01 07:44:00,
2015-07-01 06:23:00,74.0,73.0,-100.00,WSW,239,2.0,-999.0,95,-99.99,,,-99.99,,2015-07-01 10:23:00,
2015-07-01 06:33:00,74.0,73.0,-100.00,WSW,239,2.0,-999.0,95,-99.99,,,-99.99,,2015-07-01 10:33:00,
2015-07-01 06:43:00,74.0,73.0,-100.00,WSW,239,2.0,-999.0,95,-99.99,,,-99.99,,2015-07-01 10:43:00,
2015-07-01 07:23:00,74.0,73.0,-100.00,SW,230,2.0,-999.0,95,-99.99,,,-99.99,,2015-07-01 11:23:00,
2015-07-01 07:33:00,74.0,73.0,-100.00,SW,230,2.0,-999.0,95,-99.99,,,-99.99,,2015-07-01 11:33:00,
2015-07-01 07:43:00,74.0,73.0,-100.00,SW,230,2.0,-999.0,95,-99.99,,,-99.99,,2015-07-01 11:43:00,
2015-07-01 08:23:00,76.0,74.0,-100.00,SW,229,3.0,-999.0,92,-99.99,,,-99.99,,2015-07-01 12:23:00,
2015-07-01 08:34:00,76.0,74.0,-100.00,SW,229,3.0,-999.0,92,-99.99,,,-99.99,,2015-07-01 12:34:00,
2015-07-01 08:44:00,76.0,74.0,-100.00,SW,229,3.0,-999.0,92,-99.99,,,-99.99,,2015-07-01 12:44:00,
2015-07-01 09:23:00,81.0,75.0,-100.00,West,266,4.0,-999.0,82,-99.99,,,-99.99,,2015-07-01 13:23:00,
2015-07-01 09:33:00,81.0,75.0,-100.00,West,266,4.0,-999.0,82,-99.99,,,-99.99,,2015-07-01 13:33:00,
2015-07-01 09:43:00,81.0,75.0,-100.00,West,266,4.0,-999.0,82,-99.99,,,-99.99,,2015-07-01 13:43:00,
2015-07-01 11:23:00,87.0,73.0,-100.00,West,274,4.0,-999.0,63,-99.99,,,-99.99,,2015-07-01 15:23:00,
2015-07-01 11:33:00,87.0,73.0,-100.00,West,274,4.0,-999.0,63,-99.99,,,-99.99,,2015-07-01 15:33:00,
2015-07-01 11:43:00,87.0,73.0,-100.00,West,274,4.0,-999.0,63,-99.99,,,-99.99,,2015-07-01 15:43:00,
2015-07-01 14:34:00,92.0,70.0,-100.00,SW,233,7.0,-999.0,48,-99.99,,,-99.99,,2015-07-01 18:34:00,
2015-07-01 14:44:00,92.0,70.0,-100.00,SW,233,7.0,-999.0,48,-99.99,,,-99.99,,2015-07-01 18:44:00,
2015-07-01 15:23:00,86.0,72.0,-100.00,SSW,207,5.0,-999.0,62,-99.99,,,-99.99,,2015-07-01 19:23:00,
2015-07-01 15:34:00,86.0,72.0,-100.00,SSW,207,5.0,-999.0,62,-99.99,,,-99.99,,2015-07-01 19:34:00,
2015-07-01 15:44:00,86.0,72.0,-100.00,SSW,207,5.0,-999.0,62,-99.99,,,-99.99,,2015-07-01 19:44:00,